• MPC Preparation (Info)

  • MPEC 2016-N107: 2003 FM129

    The following Minor Planet Electronic Circular may be linked-to from your own Web pages, but must not otherwise be redistributed electronically.

    A form allowing access to any MPEC is at the bottom of this page.


    Read MPEC 2016-N106 Read MPEC 2016-N108


    M.P.E.C. 2016-N107                               Issued 2016 July 15, 02:53 UT
    
         The Minor Planet Electronic Circulars contain information on unusual
             minor planets and routine data on comets.  They are published
        on behalf of Division F of the International Astronomical Union by the
              Minor Planet Center, Smithsonian Astrophysical Observatory,
                              Cambridge, MA 02138, U.S.A.
    
                 Prepared using the Tamkin Foundation Computer Network
    
                                  MPC@CFA.HARVARD.EDU
                URL https://www.minorplanetcenter.net/    ISSN 1523-6714
    
                                      2003 FM129
    
                               Revision to MPEC 2004-D29
    
    Additional Observations:
         K03FC9M  C2011 06 02.32418 14 49 07.206-11 21 29.90         22.0 wLEN107F51
         K03FC9M  C2011 06 02.33745 14 49 07.152-11 21 29.82         22.2 wLEN107F51
         K03FC9M  C2011 06 02.35073 14 49 07.098-11 21 29.29         22.2 wLEN107F51
         K03FC9M  C2011 06 02.36399 14 49 07.037-11 21 29.28         22.0 wLEN107F51
         K03FC9M  C2013 04 13.47552 15 07 27.990-11 40 33.05         21.9 wLEN107F51
         K03FC9M  C2013 04 13.50329 15 07 27.868-11 40 32.03         22.2 wLEN107F51
         K03FC9M  C2013 04 13.51717 15 07 27.799-11 40 31.68         21.7 wLEN107F51
         K03FC9M  C2013 05 09.41161 15 05 21.946-11 28 32.08         22.0 wLEN107F51
         K03FC9M  C2013 05 09.42558 15 05 21.874-11 28 31.54         21.9 wLEN107F51
         K03FC9M  C2013 05 09.43954 15 05 21.795-11 28 31.19         21.9 wLEN107F51
         K03FC9M  C2013 05 09.45352 15 05 21.740-11 28 30.75         22.0 wLEN107F51
         K03FC9M  C2014 02 28.54854 15 16 44.531-11 55 43.38         22.3 wLEN107F51
         K03FC9M  C2014 02 28.56049 15 16 44.521-11 55 43.31         22.4 wLEN107F51
         K03FC9M  C2014 02 28.57243 15 16 44.513-11 55 43.14         22.1 wLEN107F51
         K03FC9M  C2014 05 08.42027 15 12 44.838-11 26 46.49         21.4 iLEN107F51
         K03FC9M  C2014 05 08.43250 15 12 44.769-11 26 46.07         21.5 iLEN107F51
         K03FC9M  C2014 05 08.44472 15 12 44.698-11 26 45.84         21.3 iLEN107F51
         K03FC9M  C2014 05 08.45692 15 12 44.634-11 26 45.44         21.3 iLEN107F51
         K03FC9M  C2014 05 22.41173 15 11 33.944-11 20 55.36         21.9 wLEN107F51
         K03FC9M  C2014 05 22.42553 15 11 33.866-11 20 54.96         22.1 wLEN107F51
         K03FC9M  C2014 05 22.43897 15 11 33.796-11 20 54.68         21.9 wLEN107F51
         K03FC9M  C2014 05 22.45241 15 11 33.728-11 20 54.48         22.0 wLEN107F51
         K03FC9M  C2014 06 03.40899 15 10 36.149-11 16 33.63         21.9 wLEN107F51
         K03FC9M  C2014 06 03.42170 15 10 36.093-11 16 33.31         22.1 wLEN107F51
         K03FC9M  C2014 06 03.43441 15 10 36.032-11 16 33.02         21.9 wLEN107F51
         K03FC9M  C2014 06 03.44708 15 10 35.969-11 16 32.79         22.1 wLEN107F51
         K03FC9M  C2014 06 21.34396 15 09 21.977-11 11 35.04         22.1 wLEN107F51
         K03FC9M  C2014 06 21.35661 15 09 21.950-11 11 35.09         22.5 wLEN107F51
         K03FC9M  C2014 06 21.36921 15 09 21.883-11 11 34.96         22.2 wLEN107F51
         K03FC9M  C2014 06 21.38184 15 09 21.857-11 11 34.61         22.2 wLEN107F51
         K03FC9M  C2014 07 28.26596 15 08 06.102-11 08 36.78         22.6 wLEN107F51
         K03FC9M  C2014 07 28.27684 15 08 06.089-11 08 36.72         22.1 wLEN107F51
         K03FC9M  C2014 07 28.28777 15 08 06.075-11 08 36.99         22.3 wLEN107F51
         K03FC9M  C2015 06 16.35548 15 16 58.638-11 10 05.83         21.9 wLEN107F51
         K03FC9M  C2015 06 16.38485 15 16 58.502-11 10 05.26         21.9 wLEN107F51
         K03FC9M  C2015 06 16.39948 15 16 58.463-11 10 05.33         22.2 wLEN107F51
    
    Observer details:
    F51 Pan-STARRS 1, Haleakala.  Observers B. Gibson, T. Goggia, N. Primak,
        A. Schultz, M. Willman.  Measurers K. Chambers, S. Chastel, Y.-T. Chen,
        L. Denneau, H. Flewelling, M. Holman, M. Huber, R. Jedicke, M. Lackner,
        E. Lilly, H.-W. Lin, E. Magnier, M. Micheli, M. Payne, P. Veres,
        R. Wainscoat, C. Waters, R. Weryk.  1.8-m Ritchey-Chretien + CCD.
    
    Orbital elements:
    2003 FM129
    Epoch 2016 July 31.0 TT = JDT 2457600.5                 MPC
    M 346.59676              (2000.0)            P               Q
    n   0.00271108     Peri.   48.67296     -0.22078914     +0.96346883
    a  50.9379540      Node   209.62042     -0.96114813     -0.24133753
    e   0.2820415      Incl.   17.86101     -0.16566962     +0.11612064
    P 364              H    6.1           G   0.15           U   1
    Residuals in seconds of arc
    030331 807  0.2+  0.1+    130509 F51  0.1+  0.0     140603 F51  0.0   0.1+
    030331 807  0.5-  0.3+    130509 F51  0.0   0.0     140603 F51  0.0   0.1+
    030331 807  0.1+  0.0     130509 F51  0.2+  0.0     140603 F51  0.1-  0.1+
    030331 807  0.0   0.2+    140228 F51  0.1-  0.1+    140621 F51  0.2-  0.2+
    030331 807  0.2+  0.3+    140228 F51  0.1-  0.1-    140621 F51  0.1+  0.0
    030402 807  0.1-  0.1+    140228 F51  0.1-  0.1-    140621 F51  0.2-  0.1-
    030403 807  0.1+  0.2+    140508 F51  0.3+  0.0     140621 F51  0.1+  0.1+
    110602 F51  0.1-  0.1-    140508 F51  0.2+  0.1+    140728 F51  0.0   0.2+
    110602 F51  0.0   0.3-    140508 F51  0.1+  0.0     140728 F51  0.1-  0.3+
    110602 F51  0.1+  0.0     140508 F51  0.1+  0.1+    140728 F51  0.3-  0.0
    110602 F51  0.0   0.3-    140522 F51  0.2+  0.0     150616 F51  0.1+  0.0
    130413 F51  0.1-  0.3-    140522 F51  0.0   0.0     150616 F51  0.2-  0.1+
    130413 F51  0.0   0.0     140522 F51  0.0   0.0     150616 F51  0.2+  0.1-
    130413 F51  0.1-  0.1-    140522 F51  0.0   0.1-
    130509 F51  0.1+  0.2-    140603 F51  0.0   0.0
    
    Ephemeris:
    2003 FM129               a,e,i = 50.94, 0.28, 18                 q = 36.571
    Date    TT    R. A. (2000) Decl.     Delta      r     Elong.  Phase     V
    2016 06 15    15 24 21.4 -11 06 51  36.4771 37.3308   146.8     0.9    21.9
    ...
    2016 06 30    15 23 25.2 -11 03 55  36.6319 37.3263   132.5     1.2    21.9
    ...
    2016 07 08    15 23 02.0 -11 03 01  36.7332 37.3240   124.9     1.3    22.0
    ...
    2016 07 14    15 22 48.2 -11 02 40  36.8162 37.3222   119.2     1.4    22.0
    2016 07 15    15 22 46.3 -11 02 37  36.8305 37.3219   118.2     1.4    22.0
    2016 07 16    15 22 44.4 -11 02 36  36.8450 37.3216   117.3     1.4    22.0
    ...
    2016 07 22    15 22 35.0 -11 02 36  36.9344 37.3198   111.6     1.5    22.0
    ...
    2016 07 30    15 22 28.0 -11 03 01  37.0595 37.3175   104.0     1.5    22.0
    ...
    2016 08 14    15 22 32.4 -11 05 02  37.3040 37.3130    89.7     1.6    22.0
    
    A. U. Tomatic                (C) Copyright 2016 MPC           M.P.E.C. 2016-N107
    

    Read MPEC 2016-N106 Read MPEC 2016-N108


    MPEC number:

    Enter an MPEC number in one of the following forms:

    • 1997-B01 (the full form)
    • J97B01 (the packed version of the full form)
    • B01 (the abbreviated form)